EW9366 Weather Reports


Display with metric or nautical units.
time (UTC)temp
F
wind
direction
speed
MPH
gust
MPH
rain 1hr
in
rain 24hr
in
rain mn
in
humidity
%
barometer
mb
20260505204135 55 49 4.0 11.0 0.01 1.06 1.06 91 1006.3
20260505203610 55 49 3.0 11.0 0.01 1.06 1.06 91 1006.1
20260505203107 55 111 2.0 8.0 0.01 1.06 1.06 91 1006.4
20260505202604 55 1 2.0 8.0 0.01 1.06 1.06 91 1006.4
20260505202101 55 86 3.0 8.0 0.01 1.06 1.06 92 1006.4
20260505201537 55 295 4.0 10.0 0.01 1.06 1.06 91 1006.4
20260505201010 55 159 5.0 11.0 0.01 1.06 1.06 91 1006.3
20260505200445 55 98 5.0 11.0 0.01 1.06 1.06 91 1006.1
20260505195939 56 103 4.0 11.0 0.01 1.06 1.06 92 1005.9
20260505195439 56 56 3.0 11.0 0.01 1.06 1.06 91 1006.3
20260505194916 56 70 3.0 8.0 0.00 1.05 1.05 91 1006.6
20260505194413 56 115 3.0 8.0 0.00 1.05 1.05 91 1006.5
20260505194357 56 64 2.0 13.0 0.00 1.05 1.05 91 1006.7
20260505193411 56 185 3.0 13.0 0.00 1.05 1.05 91 1006.5
20260505193339 56 34 6.0 13.0 0.00 1.05 1.05 91 1005.8
20260505192332 56 117 7.0 13.0 0.00 1.05 1.05 92 1005.5
20260505191834 56 21 5.0 12.0 0.00 1.05 1.05 92 1005.1
20260505191322 56 53 4.0 12.0 0.00 1.05 1.05 92 1005.7
20260505191317 57 114 4.0 11.0 0.00 1.05 1.05 92 1005.8
20260505190252 57 49 4.0 13.0 0.00 1.05 1.05 92 1005.7
20260505185729 57 91 4.0 13.0 0.01 1.05 1.05 92 1005.7
20260505185207 57 100 4.0 9.0 0.01 1.05 1.05 92 1006.0
20260505184705 57 34 5.0 13.0 0.01 1.05 1.05 91 1005.9
20260505184142 57 135 6.0 13.0 0.01 1.05 1.05 92 1005.7
20260505183641 57 23 6.0 14.0 0.01 1.05 1.05 92 1005.5
20260505183139 58 24 6.0 14.0 0.01 1.05 1.05 91 1005.4
20260505183126 58 101 4.0 11.0 0.01 1.05 1.05 91 1005.5
20260505182119 59 115 5.0 11.0 0.01 1.05 1.05 91 1005.4
20260505181616 59 108 5.0 11.0 0.01 1.05 1.05 91 1005.4
20260505181113 60 45 4.0 11.0 0.01 1.05 1.05 90 1005.4
20260505180614 61 116 3.0 9.0 0.01 1.05 1.05 89 1005.5
20260505180053 63 165 3.0 8.0 0.00 1.04 1.04 90 1005.0
20260505180039 63 165 3.0 8.0 0.00 1.04 1.04 91 1005.0
20260505175031 64 53 3.0 8.0 0.00 1.04 1.04 91 1004.9
20260505175014 64 6 2.0 7.0 0.00 1.04 1.04 91 1005.0
20260505174012 64 47 1.0 6.0 0.00 1.04 1.04 91 1005.1
20260505173511 64 119 1.0 6.0 0.00 1.04 1.04 91 1005.2
20260505172944 64 84 1.0 5.0 0.00 1.04 1.04 91 1005.1
20260505172425 64 20 1.0 5.0 0.00 1.04 1.04 91 1005.1
20260505171923 64 29 1.0 3.0 0.00 1.04 1.04 91 1005.1
20260505171356 64 91 1.0 8.0 0.00 1.04 1.04 91 1005.0
20260505170855 64 51 2.0 8.0 0.00 1.04 1.04 91 1004.9
20260505170357 64 75 2.0 6.0 0.00 1.04 1.04 91 1004.8
20260505165832 65 86 2.0 6.0 0.00 1.04 1.04 90 1004.9
20260505165322 65 66 3.0 7.0 0.00 1.04 1.04 90 1004.9
20260505164823 65 38 3.0 7.0 0.00 1.04 1.04 90 1005.0
20260505164741 65 105 2.0 7.0 0.00 1.04 1.04 89 1005.0
20260505163727 65 65 1.0 4.0 0.00 1.04 1.04 90 1005.1
20260505163206 65 20 1.0 3.0 0.00 1.04 1.04 90 1005.1
20260505162707 65 39 1.0 4.0 0.00 1.04 1.04 89 1005.1
20260505162200 66 27 2.0 4.0 0.00 1.04 1.04 89 1005.0
20260505161700 66 39 2.0 5.0 0.00 1.04 1.04 90 1005.0
20260505161148 65 105 2.0 8.0 0.00 1.04 1.04 91 1004.9
20260505160645 65 103 3.0 8.0 0.00 1.04 1.04 90 1004.8
20260505160149 65 68 3.0 6.0 0.00 1.04 1.04 91 1004.8
20260505153033 65 102 3.0 7.0 0.00 1.04 1.04 93 1004.6
20260505152948 64 54 3.0 6.0 0.00 1.04 1.04 94 1004.5
20260505152015 64 54 3.0 6.0 0.00 1.04 1.04 94 1004.5
20260505151516 64 24 2.0 6.0 0.00 1.04 1.04 94 1004.6
20260505150955 63 58 3.0 8.0 0.00 1.04 1.04 95 1004.6
20260505150429 63 77 3.0 8.0 0.00 1.04 1.04 94 1004.6
20260505140201 62 94 1.0 3.0 0.00 1.04 1.04 97 1005.2
20260505124829 61 69 0.0 1.0 0.00 1.04 1.04 97 1004.8
20260505124311 60 84 0.0 4.0 0.00 1.04 1.04 97 1004.8
20260505123745 60 303 0.0 4.0 0.00 1.04 1.04 97 1004.7
20260505123220 60 1 0.0 1.0 0.00 1.04 1.04 97 1004.6
20260505122705 60 279 0.0 4.0 0.00 1.04 1.04 97 1004.6
20260505122141 60 233 0.0 4.0 0.00 1.04 1.04 97 1004.6
20260505121639 60 204 0.0 1.0 0.00 1.04 1.04 97 1004.6
20260505121139 60 112 0.0 1.0 0.00 1.04 1.04 97 1004.6
20260505120637 60 220 0.0 1.0 0.00 1.04 1.04 97 1004.6
20260505120116 60 330 0.0 1.0 0.00 1.04 1.04 97 1004.5
20260505115558 60 108 0.0 1.0 0.00 1.04 1.04 97 1004.4
20260505115057 60 108 0.0 2.0 0.00 1.04 1.04 97 1004.5
20260505114558 60 108 0.0 2.0 0.00 1.04 1.04 97 1004.4
20260505114055 60 58 0.0 4.0 0.00 1.04 1.04 96 1004.4
20260505113535 60 314 0.0 1.0 0.00 1.04 1.04 96 1004.3
20260505113014 60 314 0.0 1.0 0.00 1.04 1.04 96 1004.4
20260505112959 60 193 0.0 1.0 0.00 1.04 1.04 96 1004.3
20260505112014 60 18 0.0 3.0 0.00 1.04 1.04 96 1004.4
20260505111512 60 18 0.0 2.0 0.00 1.04 1.04 96 1004.3
20260505110944 60 51 1.0 4.0 0.00 1.04 1.04 96 1004.3
20260505110414 60 41 1.0 4.0 0.00 1.04 1.04 96 1004.3
20260505101656 60 96 2.0 5.0 0.02 1.04 1.04 96 1005.1
20260505101136 60 113 2.0 5.0 0.02 1.04 1.04 96 1005.0
20260505101120 59 98 2.0 5.0 0.02 1.04 1.04 96 1005.1
20260505100137 59 27 1.0 5.0 0.02 1.04 1.04 96 1005.2
20260505095637 59 26 1.0 4.0 0.02 1.04 1.04 96 1005.2
20260505095133 59 26 1.0 4.0 0.03 1.04 1.04 96 1005.2
20260505094634 59 37 2.0 5.0 0.04 1.04 1.04 96 1005.2
20260505094559 59 17 2.0 5.0 0.05 1.04 1.04 96 1005.2
20260505093543 59 115 2.0 5.0 0.06 1.04 1.04 96 1005.3
20260505093014 59 61 1.0 5.0 0.08 1.04 1.04 96 1005.5
20260505092952 59 100 1.0 4.0 0.08 1.03 1.03 95 1005.5
20260505091946 59 16 1.0 3.0 0.14 1.03 1.03 95 1005.4
20260505091421 59 27 2.0 4.0 0.19 1.02 1.02 95 1005.4
20260505090856 59 82 1.0 4.0 0.21 1.02 1.02 95 1005.4
20260505090356 59 105 1.0 5.0 0.24 1.02 1.02 95 1005.6
20260505085830 59 59 1.0 5.0 0.30 1.02 1.02 95 1005.4
20260505085754 59 73 2.0 4.0 0.33 1.01 1.01 95 1005.4
20260505084803 60 88 1.0 4.0 0.36 1.00 1.00 95 1005.4
20260505084717 60 229 1.0 3.0 0.38 0.99 0.99 95 1005.8
20260505083723 60 245 1.0 3.0 0.41 0.98 0.98 95 1005.7
20260505083711 60 82 0.0 1.0 0.44 0.97 0.98 95 1005.1
20260505082718 60 86 0.0 3.0 0.53 0.96 0.96 94 1005.2
20260505082636 60 93 1.0 5.0 0.51 0.93 0.93 94 1004.8
20260505081635 60 79 1.0 5.0 0.45 0.85 0.86 94 1005.0
20260505081619 60 219 1.0 6.0 0.44 0.81 0.82 94 1005.2
20260505080634 60 15 2.0 6.0 0.48 0.79 0.79 94 1005.0
20260505080130 60 59 1.0 7.0 0.44 0.74 0.74 94 1004.9
20260505075604 60 101 2.0 7.0 0.46 0.70 0.70 93 1005.5
20260505075040 60 32 3.0 11.0 0.41 0.65 0.66 92 1004.9
20260505074541 60 49 4.0 11.0 0.40 0.63 0.64 92 1005.7
20260505074037 61 98 6.0 12.0 0.39 0.58 0.58 91 1005.9
20260505073512 62 108 7.0 22.0 0.51 0.56 0.56 91 1005.0
20260505072946 62 105 7.0 22.0 0.45 0.49 0.50 92 1004.9
20260505072442 62 233 5.0 20.0 0.39 0.43 0.43 92 1005.9
20260505071942 62 131 2.0 6.0 0.39 0.42 0.42 91 1003.4
20260505071438 62 25 2.0 6.0 0.38 0.40 0.40 91 1003.9
20260505070933 62 257 2.0 6.0 0.30 0.32 0.32 90 1004.6
20260505070429 62 57 2.0 6.0 0.30 0.31 0.31 90 1003.6
20260505065925 62 82 1.0 4.0 0.23 0.24 0.25 89 1004.6
20260505065423 62 17 1.0 4.0 0.24 0.24 0.24 89 1004.5
20260505064857 62 49 0.0 2.0 0.23 0.23 0.23 89 1004.6
20260505064332 62 119 1.0 3.0 0.23 0.23 0.23 88 1004.5
20260505063831 62 79 1.0 5.0 0.11 0.11 0.11 88 1004.7
20260505063328 63 246 1.0 5.0 0.05 0.05 0.05 87 1006.0
20260505062823 63 276 0.0 2.0 0.04 0.04 0.04 86 1005.9
20260505062255 63 162 0.0 2.0 0.04 0.04 0.04 85 1004.8
20260505061730 63 101 0.0 2.0 0.03 0.03 0.03 84 1004.6
20260505061229 64 108 0.0 3.0 0.02 0.02 0.02 84 1005.0
20260505060726 64 37 0.0 3.0 0.02 0.02 0.02 82 1005.4
20260505060213 65 113 0.0 1.0 0.01 0.01 0.01 81 1005.6
20260505060127 65 163 0.0 0.0 0.00 0.00 0.01 80 1005.9
20260505055120 65 163 0.0 0.0 0.00 0.00 0.00 78 1006.1
20260505055108 65 163 0.0 0.0 0.00 0.00 0.00 78 1006.1
20260505054112 65 163 0.0 0.0 0.00 0.00 0.00 78 1006.0
20260505053609 65 157 0.0 0.0 0.00 0.00 0.00 77 1005.8
20260505053043 65 160 0.0 0.0 0.00 0.00 0.00 77 1005.9
20260505052516 65 160 0.0 3.0 0.00 0.00 0.00 77 1005.9
20260505052012 65 159 0.0 3.0 0.00 0.00 0.00 77 1005.7
20260505051930 65 135 0.0 2.0 0.00 0.00 0.00 77 1005.4
20260505050943 65 139 0.0 2.0 0.00 0.00 0.00 77 1005.4
20260505050440 65 138 0.0 1.0 0.00 0.00 0.00 78 1005.4
20260505041317 64 150 0.0 0.0 0.00 0.00 0.00 80 1005.8
20260505040754 64 150 0.0 1.0 0.00 0.00 0.00 80 1005.9
20260505040249 64 177 0.0 1.0 0.00 0.00 0.00 80 1005.9
20260505040235 64 143 0.0 1.0 0.00 0.00 0.00 79 1006.0
20260505035241 64 143 0.0 1.0 0.00 0.00 0.00 79 1005.9
20260505034744 64 143 0.0 1.0 0.00 0.00 0.00 79 1006.0
20260505034725 64 143 0.0 1.0 0.00 0.00 0.00 78 1006.3
20260505033731 65 184 0.0 0.0 0.00 0.00 0.00 78 1006.1
20260505033203 65 160 0.0 1.0 0.00 0.00 0.00 78 1006.1
20260505032702 65 148 0.0 1.0 0.00 0.00 0.00 78 1006.3
20260505032159 65 181 0.0 1.0 0.00 0.00 0.00 78 1006.1
20260505031634 65 141 0.0 1.0 0.00 0.00 0.00 78 1006.1
20260505031131 65 214 0.0 0.0 0.00 0.00 0.00 78 1006.1
20260505030626 65 153 0.0 1.0 0.00 0.00 0.00 78 1006.1
20260505030119 65 153 0.0 1.0 0.00 0.00 0.00 77 1006.3
20260505025552 65 146 0.0 1.0 0.00 0.00 0.00 77 1006.5
20260505025029 65 145 0.0 1.0 0.00 0.00 0.00 77 1006.4
20260505024503 65 146 0.0 1.0 0.00 0.00 0.00 77 1006.4
20260505023935 65 146 0.0 1.0 0.00 0.00 0.00 77 1006.4
20260505023918 65 146 0.0 2.0 0.00 0.00 0.00 77 1006.3
20260505022907 65 140 0.0 2.0 0.00 0.00 0.00 77 1006.0
20260505022354 65 139 0.0 0.0 0.00 0.00 0.00 77 1005.9
20260505021853 65 139 0.0 1.0 0.00 0.00 0.00 77 1006.1
20260505021352 65 139 0.0 1.0 0.00 0.00 0.00 77 1005.9
20260505021338 65 139 0.0 1.0 0.00 0.00 0.00 77 1005.9
20260505020327 65 148 0.0 0.0 0.00 0.00 0.00 77 1005.8
20260505015824 65 159 0.0 0.0 0.00 0.00 0.00 76 1005.7
20260505015323 65 159 0.0 0.0 0.00 0.00 0.00 76 1005.6
20260505015238 65 159 0.0 0.0 0.00 0.00 0.00 76 1005.7
20260505014238 66 159 0.0 0.0 0.00 0.00 0.00 75 1005.5
20260505013740 66 159 0.0 0.0 0.00 0.00 0.00 75 1005.4
20260505013224 66 159 0.0 0.0 0.00 0.00 0.00 74 1005.6
20260505012722 67 159 0.0 0.0 0.00 0.00 0.00 73 1005.7
20260505012223 67 159 0.0 0.0 0.00 0.00 0.00 72 1005.5
20260505012206 68 159 0.0 0.0 0.00 0.00 0.00 72 1005.4
20260505011221 68 159 0.0 0.0 0.00 0.00 0.00 71 1005.3
20260505010720 69 209 0.0 0.0 0.00 0.00 0.00 70 1005.2
20260505010201 69 209 0.0 2.0 0.00 0.00 0.00 69 1005.1
20260505005659 70 138 0.0 2.0 0.00 0.00 0.00 68 1005.1
20260505005127 70 211 0.0 2.0 0.00 0.00 0.00 68 1005.1
20260505004625 71 200 0.0 2.0 0.00 0.00 0.00 67 1005.1
20260505004123 71 209 0.0 6.0 0.00 0.00 0.00 67 1005.1
20260505003623 71 128 0.0 6.0 0.00 0.00 0.00 66 1005.0
20260505003120 71 129 0.0 1.0 0.00 0.00 0.00 66 1005.1
20260505002620 72 130 0.0 2.0 0.00 0.00 0.00 66 1005.1
20260505002120 72 145 0.0 2.0 0.00 0.00 0.00 65 1005.1
20260505001617 73 195 0.0 3.0 0.00 0.00 0.00 64 1005.1
20260505001119 73 150 1.0 3.0 0.00 0.00 0.00 63 1005.2
20260505000553 74 205 1.0 5.0 0.00 0.00 0.00 63 1005.2
20260505000038 74 212 1.0 5.0 0.00 0.00 0.00 62 1005.2
20260504235536 74 208 2.0 6.0 0.00 0.00 0.00 61 1004.9
20260504235039 75 210 1.0 6.0 0.00 0.00 0.00 61 1004.9
20260504234511 75 236 1.0 4.0 0.00 0.00 0.00 61 1005.0
20260504233948 75 136 1.0 3.0 0.00 0.00 0.00 61 1005.1
20260504233425 76 204 2.0 5.0 0.00 0.00 0.00 60 1005.0
20260504232925 76 192 2.0 5.0 0.00 0.00 0.00 59 1005.1
20260504232426 76 187 2.0 5.0 0.00 0.00 0.00 60 1005.1
20260504231908 76 209 2.0 7.0 0.00 0.00 0.00 60 1005.1
20260504231352 76 210 2.0 7.0 0.00 0.00 0.00 58 1005.2
20260504230855 77 185 3.0 7.0 0.00 0.00 0.00 57 1005.1
20260504230331 78 148 2.0 7.0 0.00 0.00 0.00 57 1005.2
20260504225830 78 122 2.0 4.0 0.00 0.00 0.00 58 1005.2
20260504225331 78 212 2.0 4.0 0.00 0.00 0.00 58 1005.2
20260504224828 78 214 2.0 7.0 0.00 0.00 0.00 58 1005.1
20260504224327 78 154 2.0 7.0 0.00 0.00 0.00 57 1005.0
20260504223829 78 113 2.0 7.0 0.00 0.00 0.00 57 1005.1
20260504223809 78 136 3.0 7.0 0.00 0.00 0.00 57 1005.0
20260504222827 78 134 3.0 8.0 0.00 0.00 0.00 58 1005.1
20260504222326 78 164 3.0 8.0 0.00 0.00 0.00 57 1005.0
20260504221827 78 224 2.0 7.0 0.00 0.00 0.00 58 1005.1
20260504221302 78 219 2.0 6.0 0.00 0.00 0.00 57 1005.1
20260504220737 78 156 2.0 4.0 0.00 0.00 0.00 56 1005.1
20260504220224 78 167 2.0 6.0 0.00 0.00 0.00 56 1005.1
20260504215723 78 200 2.0 6.0 0.00 0.00 0.00 57 1005.2
20260504215223 79 195 2.0 6.0 0.00 0.00 0.00 56 1005.4
20260504214946 79 153 2.0 6.0 0.00 0.00 0.00 55 1005.5
20260504214458 79 217 3.0 7.0 0.00 0.00 0.00 57 1005.4
20260504214434 79 184 2.0 6.0 0.00 0.00 0.00 56 1005.2
20260504214351 79 137 2.0 6.0 0.00 0.00 0.00 59 1005.4
20260504214307 79 245 2.0 6.0 0.00 0.00 0.00 56 1005.3
20260504212655 79 217 3.0 7.0 0.00 0.00 0.00 57 1005.4
20260504212134 78 193 3.0 7.0 0.00 0.00 0.00 56 1005.5
20260504211634 78 188 3.0 7.0 0.00 0.00 0.00 56 1005.6
20260504211117 78 143 3.0 8.0 0.00 0.00 0.00 57 1005.6
20260504210621 78 178 3.0 8.0 0.00 0.00 0.00 55 1005.7
20260504210050 78 232 3.0 6.0 0.00 0.00 0.00 57 1005.9
20260504205550 78 210 3.0 6.0 0.00 0.00 0.00 56 1005.9
20260504205041 79 228 3.0 7.0 0.00 0.00 0.00 57 1006.0